User: anonymous   Login
Location: Franzen
(48.6167°N, 15.3833°E)
Time: 20:44:27
(UTC+00:00)
Language:

Iridium 4 Rocket - Orbit

View from above orbital plane
View from above orbital plane
View from above satellite
View from above satellite

Ground track
Ground track

The orbit data is extracted from the following two-line orbital elements,

1 24797U 97020F   21172.51317229  .00000130  00000-0  21209-4 0  9992
2 24797  86.8979 176.6889 0227015 110.5918   3.9860 14.44253064269416
Epoch (UTC): 21 June 2021 12:18:58
Eccentricity: 0.0227015
inclination: 86.8979°
perigee height: 583 km
apogee height: 906 km
right ascension of ascending node: 176.6889°
argument of perigee: 110.5918°
revolutions per day: 14.44253064
mean anomaly at epoch: 3.9860°
orbit number at epoch: 26941

The dashed part of the orbit path shows where the satellite is in the earth's shadow,  

DLR